This is the latest recevied weather packets stored in our database for station/object K5UBE. If no packets are shown the sender has not sent any weather packets the latest 10 day(s).
| Time | Temp. | Humidity | Pressure | Rain* | Wind** | Luminosity | Snow |
|---|---|---|---|---|---|---|---|
| 1778088783 | 18.33° C | 34% | 1017.6 hPa | 0 mm | - | - | - |
| 1778088480 | 17.78° C | 36% | 1018.1 hPa | 0 mm | - | - | - |
| 1778088177 | 17.22° C | 39% | 1017.9 hPa | 0 mm | - | - | - |
| 1778087875 | 17.22° C | 40% | 1017.9 hPa | 0 mm | - | - | - |
| 1778087571 | 16.67° C | 42% | 1018 hPa | 0 mm | - | - | - |
| 1778087269 | 17.22° C | 41% | 1018 hPa | 0 mm | - | - | - |
| 1778086965 | 16.67° C | 41% | 1018.2 hPa | 0 mm | - | - | - |
| 1778086664 | 16.11° C | 44% | 1018 hPa | 0 mm | - | - | - |
| 1778086361 | 15.56° C | 47% | 1018.2 hPa | 0 mm | - | - | - |
| 1778086058 | 15.56° C | 48% | 1018.1 hPa | 0 mm | - | - | - |
| 1778085755 | 14.44° C | 51% | 1018 hPa | 0 mm | - | - | - |
| 1778085452 | 13.89° C | 52% | 1018.1 hPa | 0 mm | - | - | - |
| 1778085146 | 13.33° C | 55% | 1018 hPa | 0 mm | - | - | - |
| 1778084843 | 12.78° C | 57% | 1018.1 hPa | 0 mm | - | - | - |
| 1778084540 | 13.33° C | 56% | 1018.1 hPa | 0 mm | - | - | - |
| 1778084238 | 12.78° C | 59% | 1018.1 hPa | 0 mm | - | - | - |
| 1778083935 | 12.22° C | 61% | 1018 hPa | 0 mm | - | - | - |
| 1778083632 | 12.22° C | 61% | 1018 hPa | 0 mm | - | - | - |
| 1778083328 | 11.67° C | 60% | 1018 hPa | 0 mm | - | - | - |
| 1778083027 | 11.67° C | 63% | 1017.8 hPa | 0 mm | - | - | - |
| 1778082724 | 11.67° C | 63% | 1017.9 hPa | 0 mm | - | - | - |
| 1778081586 | 11.11° C | 66% | 1017.8 hPa | 0 mm | - | - | - |
| 1778081283 | 10.56° C | 67% | 1017.9 hPa | 0 mm | - | - | - |
| 1778080980 | 10° C | 68% | 1018 hPa | 0 mm | - | - | - |
| 1778080679 | 10° C | 70% | 1018.1 hPa | 0 mm | - | - | - |
* Rain latest hour (hover to see other rain measurements)
** Current wind speed in m/s (hover to see current wind gust speed)